Temperature
20 21 21 21 21 21 23 24 25 24 24 24 24 24 23 22 20 18 18 17 17 16 16 15 14 14 13 13 12 12 12 12 11 11 11 11 11 11 11 11 11 11 11 11 11 11 11 12 12
20 20 21 22 21 22 23 24 24 24 23 23 23 24 23 22 20 18 17 17 17 16 16 15 14 14 13 13 12 12 12 11 11 11 11 11 11 10 11 11 11 11 11 11 11 12 12 12 12
21 21 22 22 23 23 23 24 23 24 24 24 24 23 23 21 20 18 18 17 16 16 15 15 14 14 13 12 12 12 12 11 11 11 11 11 10 10 10 11 11 11 11 11 11 12 12 12 12
20 21 23 22 23 24 24 24 24 24 24 23 24 23 21 20 20 19 18 17 16 15 15 15 14 14 13 12 12 12 11 11 11 11 10 11 11 11 11 11 11 11 11 11 11 11 12 12 12
21 22 22 23 23 24 24 24 24 24 24 24 23 23 20 19 19 19 18 17 16 15 15 15 14 14 13 12 12 12 11 11 11 10 10 10 10 11 11 11 11 11 11 11 11 11 11 11 12
22 23 22 22 23 24 24 24 24 24 24 24 23 23 19 19 19 18 17 17 16 15 15 15 14 14 13 12 12 12 11 11 11 10 10 10 10 11 11 11 11 11 11 11 11 11 11 11 11
22 21 22 23 23 23 24 24 24 24 24 23 23 23 19 18 19 18 17 17 16 15 15 15 14 13 13 12 12 11 11 11 11 10 10 10 10 10 10 11 11 11 11 11 10 10 11 11 11
21 21 23 23 23 23 24 23 23 23 23 22 22 22 19 18 18 18 17 17 16 15 14 14 14 13 13 12 12 11 11 11 11 10 10 10 10 10 10 10 10 10 10 10 10 10 10 10 10
21 20 21 23 23 23 24 23 23 22 22 22 22 21 20 19 18 17 17 16 16 15 14 14 13 13 12 12 12 11 11 11 11 10 10 10 10 10 10 10 10 10 10 10 10 10 10 10 10
22 20 22 23 23 23 23 23 23 22 22 22 21 20 20 19 18 17 17 16 15 15 14 14 13 13 12 12 12 11 11 11 11 10 10 10 9 9 9 10 10 10 10 10 10 9 9 9 9
22 21 22 23 22 22 22 22 22 22 21 22 22 20 19 19 18 17 17 16 15 15 14 14 13 13 13 12 12 11 11 11 10 10 10 10 9 9 9 9 9 9 9 9 9 9 9 9 9
22 22 22 22 21 21 21 22 22 22 21 22 21 20 19 18 18 17 17 16 15 15 14 14 13 13 13 12 12 11 11 11 10 10 10 10 10 10 9 9 9 9 9 9 9 9 9 9 9
21 22 22 21 21 20 20 20 21 21 21 21 21 20 19 18 18 17 17 16 16 15 14 14 13 13 13 12 12 11 11 11 11 10 10 10 10 10 10 9 9 9 9 9 9 9 9 9 9
21 21 21 21 21 21 20 20 20 21 21 21 20 19 19 18 18 17 17 16 16 15 14 14 13 13 12 12 12 11 11 11 11 11 10 10 10 10 10 9 9 9 9 9 9 9 9 9 9
21 20 20 21 21 21 20 18 19 21 21 20 20 19 19 19 18 18 17 17 16 15 14 14 13 13 12 12 12 11 11 11 11 11 10 10 10 10 10 9 9 9 9 9 9 9 9 9 9
21 20 19 21 21 20 19 18 21 22 21 20 20 20 19 19 18 18 17 17 16 15 14 14 13 13 12 12 12 11 11 11 11 10 10 10 10 10 10 9 9 9 9 9 9 9 9 9 9
20 19 20 21 21 20 19 18 20 21 21 20 20 20 20 19 18 18 17 17 16 15 15 14 13 13 12 12 12 12 11 11 11 10 10 10 10 10 10 9 9 9 9 9 9 9 8 9 9
19 19 20 20 21 20 19 18 19 21 21 21 21 21 20 20 19 18 17 17 16 15 15 14 13 13 12 12 12 11 11 11 11 10 10 10 10 10 10 9 9 9 9 9 9 8 8 8 8
19 19 19 20 21 20 18 18 19 21 21 21 21 21 20 20 19 18 17 16 16 15 14 14 13 13 12 12 12 11 11 11 11 10 10 10 10 10 10 9 9 9 9 9 9 8 8 8 8
19 18 18 19 21 19 18 18 19 20 20 20 20 20 20 20 19 18 17 16 15 15 14 14 13 13 12 12 12 12 11 11 11 10 10 10 10 10 9 9 9 9 9 9 8 8 8 8 7
18 18 18 18 18 19 18 18 20 20 21 21 20 20 20 19 19 18 17 16 15 15 14 14 13 13 13 12 12 11 11 11 10 10 10 10 10 9 9 9 9 9 9 9 8 8 7 7 7
18 19 19 18 17 17 18 16 19 20 20 20 20 20 19 19 19 18 17 16 15 15 14 14 13 13 13 12 12 11 11 11 11 10 10 10 10 9 9 9 9 9 9 8 8 8 7 7 6
18 18 18 17 16 16 17 17 18 20 20 19 19 20 19 18 18 18 17 16 15 14 14 14 13 13 13 12 12 11 11 11 11 10 10 10 10 10 9 9 9 9 8 8 8 7 7 6 6
18 18 17 17 16 15 17 17 18 19 20 20 19 19 19 18 17 17 16 15 15 14 14 13 13 13 12 12 12 11 11 11 10 10 10 10 10 10 9 9 9 9 8 8 7 7 7 6 5
17 16 15 15 14 15 18 18 18 20 20 20 19 19 18 18 17 16 16 15 14 14 14 13 13 13 12 12 12 11 11 10 10 10 10 10 10 10 9 9 9 8 8 8 7 7 6 6 5
16 16 16 16 16 17 18 17 19 20 20 20 19 19 18 17 17 16 16 15 14 14 14 13 13 13 12 12 12 11 11 10 10 10 10 10 10 10 9 9 9 8 8 7 7 6 6 5 5
17 16 17 16 16 16 17 19 20 20 19 19 19 19 18 17 17 16 16 15 15 14 14 14 13 13 12 12 12 11 11 10 10 10 10 9 9 9 9 9 8 8 7 7 6 6 5 5 4
16 17 16 15 15 15 17 18 18 18 18 19 18 19 18 18 17 16 16 15 15 14 14 13 13 12 12 12 11 11 10 10 10 9 9 9 9 9 9 8 8 8 7 7 6 5 5 4 4
15 16 16 16 16 15 15 17 19 19 19 19 19 19 19 18 17 16 16 15 15 14 13 13 12 12 11 11 11 10 10 10 9 9 9 9 9 8 8 8 8 7 7 6 5 5 4 4 3
16 16 16 15 15 16 15 16 20 20 19 19 19 19 19 18 17 16 15 15 14 14 13 12 12 11 11 11 10 10 10 9 9 9 9 9 8 8 8 7 7 7 6 6 5 4 4 3 3
Wind_Speed
15 15 9 3 4 4 3 5 6 7 6 8 7 5 8 10 7 8 5 8 14 15 20 17 16 15 14 14 14 13 13 13 13 13 13 13 13 13 13 14 14 14 15 15 15 15 15 15 15
12 10 5 4 5 3 4 5 7 9 8 5 2 2 5 9 9 9 6 9 13 17 20 17 17 16 15 14 13 13 13 12 12 12 12 12 12 12 13 13 13 13 13 14 14 14 14 14 13
9 10 5 4 3 2 5 7 9 9 6 1 2 3 6 7 9 8 9 10 12 15 19 20 18 16 15 14 14 13 12 12 12 12 12 12 12 11 12 12 12 12 12 12 12 12 12 12 12
6 4 5 5 1 6 6 8 8 7 5 1 2 5 6 6 5 8 11 9 12 13 20 21 18 16 15 14 13 13 12 12 12 12 11 11 10 10 10 10 10 10 10 10 10 10 10 10 10
4 4 5 3 2 4 6 7 4 4 5 4 3 3 7 6 11 12 10 9 11 12 20 20 18 17 16 14 13 13 12 12 12 11 10 10 9 9 9 8 8 8 8 8 8 9 9 9 9
4 4 6 4 5 4 5 4 2 2 4 5 1 1 7 9 10 9 8 8 9 12 19 19 18 17 16 15 14 14 13 12 11 10 9 8 8 8 7 7 7 6 6 6 7 7 7 7 7
5 5 6 2 5 4 5 4 2 2 0 4 2 2 8 9 9 9 9 8 9 14 17 18 17 16 16 15 14 13 13 12 11 10 9 8 7 6 6 6 5 5 5 5 5 5 5 5 5
4 5 5 3 2 4 5 3 1 4 3 4 2 3 7 8 9 8 8 7 9 10 13 15 17 17 16 15 15 14 13 11 11 10 9 8 7 6 6 5 4 3 3 3 3 4 4 4 4
4 4 5 2 2 2 6 3 3 1 4 0 2 3 8 10 9 8 7 6 7 9 10 12 14 16 17 16 16 15 13 12 12 10 10 9 8 8 7 7 5 2 1 1 2 3 5 6 6
3 4 4 5 6 5 3 1 1 3 6 5 4 7 9 9 9 9 9 9 9 9 10 9 11 13 15 15 16 15 13 13 12 11 11 10 8 6 6 7 5 4 3 3 4 5 7 8 6
4 5 4 4 5 6 5 4 4 5 7 5 2 9 10 9 9 9 10 10 10 10 9 9 9 12 12 11 13 12 12 13 12 11 11 8 6 5 6 6 6 5 5 4 4 6 7 6 5
6 5 4 3 3 2 6 6 7 7 8 3 2 6 10 10 10 10 9 9 10 10 9 9 8 10 11 11 10 10 9 9 8 8 7 5 4 3 3 3 4 3 3 2 3 4 6 5 7
7 5 3 2 1 5 6 8 9 10 8 4 3 5 8 10 9 9 9 9 10 11 10 9 9 9 9 8 8 8 8 8 9 8 7 5 4 2 2 0 1 0 1 2 3 5 5 5 7
4 5 6 6 6 6 7 10 9 10 7 6 7 8 9 10 10 9 9 9 10 12 11 10 10 9 9 6 5 6 8 9 9 9 7 5 4 3 2 1 0 1 2 4 5 5 4 4 5
6 8 9 9 8 3 3 10 12 13 9 9 9 10 10 10 10 10 10 10 9 11 12 11 10 9 9 8 7 7 9 9 7 8 8 6 5 4 2 1 0 1 2 4 4 5 5 4 4
8 8 7 6 7 6 3 10 8 5 8 10 10 10 10 11 11 10 10 10 9 10 11 11 10 10 9 8 7 7 9 9 8 8 8 7 6 5 2 1 1 1 1 2 2 2 3 4 4
8 7 6 3 8 6 7 9 9 5 8 10 10 10 10 10 11 11 11 11 10 10 11 11 11 10 9 8 7 7 8 7 9 9 8 7 7 6 4 2 1 1 1 1 2 2 2 3 5
4 5 5 6 3 5 8 12 12 11 11 11 10 9 9 10 11 10 11 11 10 10 10 11 11 10 9 8 6 5 5 5 7 8 8 8 8 7 5 2 2 1 0 1 1 2 2 2 3
7 8 9 9 6 4 10 14 15 12 10 9 9 9 9 9 10 10 11 11 10 9 10 11 11 10 8 7 7 6 6 5 4 6 8 9 8 7 5 2 1 1 1 0 1 1 3 3 3
8 10 11 9 4 5 10 15 16 10 8 7 7 7 7 7 8 10 10 10 11 10 10 11 12 11 9 8 7 6 6 5 4 5 7 9 8 7 5 3 2 2 1 1 1 1 1 2 2
10 10 9 9 10 9 9 11 7 4 4 5 6 6 6 6 8 10 11 11 10 10 11 10 11 11 10 9 7 6 4 4 4 5 4 6 8 7 6 5 3 3 2 2 1 1 1 2 2
9 4 5 7 7 6 5 7 8 5 5 5 5 5 5 5 6 9 11 11 11 10 10 10 10 11 10 10 9 9 7 6 6 5 5 5 8 8 8 6 4 3 2 3 2 2 1 1 2
5 0 4 7 8 8 8 7 7 5 5 4 4 4 4 5 5 7 10 11 10 9 9 9 10 10 10 10 11 10 7 6 5 6 7 7 5 7 7 7 5 4 3 3 3 2 2 2 3
2 3 8 7 5 7 8 7 6 2 2 2 3 3 4 4 5 5 8 9 9 9 9 8 9 10 10 10 11 11 10 8 8 7 8 6 4 4 6 7 5 5 3 3 3 3 3 3 4
5 4 4 5 6 7 4 5 7 2 4 3 2 2 3 5 5 6 8 9 10 10 10 9 10 10 11 11 11 11 11 10 10 8 8 7 5 4 6 5 5 4 4 5 4 4 4 4 4
9 7 5 4 3 2 3 7 5 5 6 4 3 3 4 4 5 7 8 9 10 11 11 11 11 10 11 11 11 10 10 8 7 8 7 7 6 6 6 6 6 6 6 5 4 4 5 5 5
8 10 6 5 7 6 6 6 5 5 6 5 5 5 5 5 6 7 8 9 10 11 12 12 12 11 11 11 10 9 9 8 8 8 7 6 6 6 7 7 6 6 6 5 5 5 6 5 6
5 4 4 5 5 6 8 9 5 7 7 6 6 5 5 6 6 7 7 9 9 10 10 11 11 11 10 10 10 8 9 8 8 7 8 7 7 6 7 7 7 6 5 5 5 5 5 6 6
9 7 6 6 6 4 5 4 1 5 6 4 4 4 4 4 5 5 5 6 7 8 9 10 10 10 10 10 9 9 8 8 8 7 8 7 7 7 8 7 7 7 6 6 6 6 7 7 7
11 12 11 7 7 6 5 6 2 4 5 3 3 4 5 5 5 5 5 5 6 7 8 9 9 9 9 9 8 8 8 8 8 7 7 7 7 7 7 7 7 7 7 7 7 7 7 8 8
Wind_Direction
292 266 248 251 251 235 89 79 91 82 66 55 36 12 47 49 47 101 145 118 120 128 135 142 140 137 131 124 120 114 108 103 98 92 87 82 77 72 70 71 68 66 63 62 61 59 57 56 56
292 278 261 239 249 210 120 115 89 78 81 84 79 340 85 83 92 111 129 115 127 132 139 142 141 139 134 129 125 121 115 110 104 97 92 86 81 77 75 74 71 68 65 62 60 58 57 55 54
269 268 255 243 271 24 105 102 96 93 101 119 110 46 48 79 102 120 126 133 132 133 137 138 143 142 138 134 129 125 120 116 111 105 97 91 87 82 79 76 73 70 66 64 60 57 55 53 52
267 249 243 253 12 41 74 98 105 127 128 88 323 111 86 56 75 110 129 146 139 134 132 141 146 146 144 140 136 132 126 121 117 111 104 98 94 89 84 78 74 70 66 62 58 55 53 51 48
239 256 243 244 86 76 63 80 119 167 149 126 327 84 99 90 98 118 143 151 144 136 135 145 149 150 149 146 144 141 135 130 126 119 113 107 101 96 91 84 76 70 64 60 55 52 49 45 41
257 263 258 212 138 122 118 113 206 229 131 123 284 37 111 127 121 135 146 158 144 133 136 146 153 154 154 151 149 147 144 140 135 129 123 117 111 105 99 92 82 72 64 56 52 49 42 35 29
280 273 287 298 125 153 133 128 234 298 116 93 33 342 123 132 131 145 153 162 140 134 138 147 155 158 158 156 154 153 152 148 145 141 136 132 126 119 113 105 91 78 64 52 43 32 21 14 7
309 293 272 286 175 158 123 125 37 346 353 82 33 336 117 135 144 150 150 153 138 137 142 152 159 161 161 160 160 159 158 158 155 151 149 151 152 149 143 132 116 97 68 42 23 6 351 339 325
285 281 281 305 346 86 117 165 153 78 302 210 130 71 118 134 147 146 146 152 146 147 149 157 161 163 164 164 163 162 164 164 162 162 166 171 178 172 166 144 143 140 117 346 331 319 308 298 289
242 275 302 10 10 8 80 218 236 203 244 236 174 122 129 144 158 165 171 174 167 165 161 160 159 161 163 163 161 169 170 169 175 172 178 195 188 164 152 156 172 196 226 258 273 284 289 286 277
253 266 319 3 19 359 331 281 260 255 263 269 209 154 151 163 176 186 188 181 173 169 167 164 157 160 160 158 163 168 167 172 185 176 184 188 156 147 151 166 184 213 229 246 266 272 277 293 313
268 282 311 337 47 323 294 293 280 254 254 263 66 127 157 176 189 193 192 181 168 170 170 167 158 157 161 160 164 164 164 170 168 166 176 162 149 165 151 176 174 205 228 263 290 288 293 311 313
255 273 282 280 236 258 276 276 277 265 260 243 160 164 182 192 194 196 192 182 169 172 171 172 165 160 163 161 162 165 163 162 158 165 175 161 148 142 115 173 119 359 343 323 317 314 325 330 325
312 301 275 251 240 244 259 270 263 255 238 222 199 201 203 204 199 193 189 187 177 172 172 172 172 165 164 162 162 162 157 156 157 158 164 160 146 129 141 210 3 349 333 331 325 318 330 325 327
273 273 263 229 220 217 281 271 246 240 224 223 217 212 209 204 198 197 188 184 180 170 171 173 175 170 168 168 166 159 156 154 150 154 165 163 150 143 158 162 193 334 336 327 322 330 337 325 323
240 246 250 203 189 162 195 267 279 206 200 221 226 221 210 204 198 194 184 179 178 168 170 173 175 175 171 166 163 156 157 155 155 159 164 165 165 166 171 164 227 274 308 315 318 326 336 334 336
226 244 255 219 186 184 215 266 277 253 220 228 230 227 213 199 198 191 180 177 175 170 169 168 170 175 169 162 157 156 154 153 156 159 161 168 174 173 174 182 223 279 311 323 328 345 353 338 329
292 293 299 293 212 221 251 266 272 265 245 237 233 233 221 204 197 186 177 173 172 173 170 168 168 174 167 160 157 153 152 153 156 159 164 170 176 175 182 183 206 196 68 327 343 337 344 326 316
299 294 288 286 288 268 263 271 275 267 253 244 237 232 227 214 189 175 169 164 166 172 173 172 170 176 169 164 165 165 169 166 162 161 171 174 177 178 178 179 183 137 140 261 320 351 345 331 338
267 274 280 288 312 302 276 279 276 259 240 235 241 240 233 215 187 169 163 165 172 178 179 176 173 174 174 170 167 165 163 168 167 163 174 178 181 181 178 176 173 159 155 282 303 13 343 318 356
250 256 273 297 316 275 267 285 267 234 202 207 224 226 227 217 196 170 169 174 175 179 181 180 174 172 174 166 155 147 139 140 157 173 176 180 182 181 178 179 180 168 167 199 217 208 224 290 315
253 263 280 293 299 293 308 296 279 220 187 198 203 200 209 214 200 176 171 175 179 181 175 176 171 171 174 169 166 167 172 176 182 173 172 182 186 182 177 180 183 176 176 194 210 197 200 213 272
242 42 278 273 275 279 259 253 270 218 188 188 167 163 182 190 188 178 173 175 175 170 167 172 172 174 178 178 177 179 182 180 168 167 175 183 185 178 176 180 180 183 189 195 196 199 219 214 228
224 256 260 248 257 260 235 224 274 234 154 133 122 135 154 161 172 175 164 162 165 162 163 171 177 180 181 184 183 184 185 183 179 179 180 180 175 176 179 181 183 189 187 192 196 204 222 231 238
195 215 250 215 213 237 189 216 252 201 107 101 111 119 133 149 166 177 171 171 171 169 171 179 185 188 187 188 190 191 191 190 190 183 179 177 177 185 189 182 186 191 194 196 198 209 225 230 237
198 215 230 253 257 280 205 230 241 146 124 126 140 144 140 150 170 185 184 181 181 179 179 185 194 195 191 192 195 196 193 192 190 181 176 183 188 189 184 184 190 195 195 199 201 216 227 230 233
198 215 243 290 291 278 253 237 209 146 142 166 171 166 168 169 177 188 188 186 187 186 188 190 195 198 197 194 193 196 194 191 187 181 179 185 185 184 180 183 190 195 196 201 204 219 229 230 233
247 234 194 214 243 255 256 247 226 175 181 182 175 171 166 170 180 188 193 193 193 192 191 191 195 199 199 195 194 196 195 192 183 180 184 185 184 178 175 183 190 196 202 207 212 225 232 236 240
195 216 217 222 242 246 271 270 73 144 153 168 177 157 162 181 187 190 196 193 189 188 188 191 195 198 198 197 195 193 193 188 182 184 187 185 182 177 181 188 194 201 208 212 217 226 232 238 245
199 207 207 214 231 226 251 268 189 120 126 150 192 192 199 190 178 180 187 185 188 192 193 193 194 197 197 193 193 193 190 184 186 190 189 184 183 183 186 189 198 207 213 216 221 232 237 240 247
Height
1520 1521 1522 1524 1524 1524 1522 1517 1515 1519 1521 1525 1526 1526 1527 1531 1536 1547 1545 1544 1544 1544 1545 1546 1547 1548 1549 1550 1551 1552 1552 1552 1553 1553 1552 1552 1552 1552 1552 1551 1551 1550 1550 1549 1549 1548 1547 1547 1547
1521 1522 1524 1523 1524 1528 1525 1517 1519 1522 1525 1527 1528 1528 1528 1533 1537 1541 1543 1544 1544 1544 1545 1546 1547 1549 1550 1551 1551 1552 1553 1553 1553 1553 1553 1553 1553 1553 1552 1552 1552 1551 1551 1550 1550 1549 1549 1548 1548
1522 1522 1524 1520 1519 1522 1521 1517 1520 1523 1526 1527 1528 1529 1531 1535 1538 1540 1542 1543 1544 1544 1545 1546 1548 1549 1550 1551 1552 1553 1553 1554 1554 1554 1554 1554 1554 1554 1553 1553 1553 1552 1552 1551 1551 1551 1550 1550 1549
1523 1524 1521 1520 1520 1517 1515 1517 1520 1524 1527 1528 1528 1529 1533 1536 1538 1540 1541 1543 1544 1545 1545 1546 1548 1549 1550 1551 1552 1553 1554 1554 1554 1555 1555 1555 1555 1554 1554 1554 1554 1553 1553 1553 1552 1552 1551 1551 1551
1524 1523 1521 1521 1518 1516 1516 1519 1522 1523 1525 1527 1528 1529 1533 1536 1537 1539 1541 1543 1544 1544 1544 1546 1548 1549 1550 1551 1552 1553 1554 1555 1555 1555 1555 1555 1555 1555 1555 1555 1555 1554 1554 1554 1553 1553 1553 1552 1552
1524 1520 1523 1523 1518 1517 1518 1521 1522 1522 1524 1526 1528 1529 1533 1535 1536 1538 1540 1543 1544 1544 1544 1546 1547 1549 1550 1551 1552 1553 1554 1555 1555 1556 1556 1556 1556 1556 1556 1556 1556 1555 1555 1555 1554 1554 1553 1553 1552
1524 1521 1521 1516 1518 1519 1518 1521 1523 1523 1524 1526 1528 1529 1532 1534 1535 1538 1540 1542 1544 1543 1543 1545 1547 1548 1550 1551 1552 1553 1554 1555 1556 1556 1556 1557 1557 1557 1557 1556 1556 1556 1555 1555 1555 1554 1554 1553 1552
1523 1521 1519 1517 1518 1518 1518 1522 1524 1525 1525 1527 1528 1529 1532 1534 1534 1537 1539 1541 1543 1543 1543 1544 1546 1547 1549 1551 1552 1553 1554 1555 1556 1556 1557 1557 1557 1557 1557 1557 1557 1556 1556 1555 1555 1554 1554 1553 1552
1524 1526 1524 1517 1517 1517 1518 1522 1524 1525 1526 1526 1528 1529 1530 1532 1533 1536 1538 1540 1541 1542 1543 1543 1545 1547 1548 1550 1551 1553 1554 1555 1555 1556 1557 1557 1557 1557 1557 1557 1557 1556 1556 1555 1555 1554 1554 1553 1552
1524 1527 1521 1516 1516 1518 1519 1521 1523 1525 1525 1525 1526 1527 1528 1530 1531 1533 1535 1537 1538 1540 1542 1543 1544 1546 1548 1549 1550 1552 1553 1554 1555 1556 1557 1557 1557 1558 1558 1557 1557 1556 1556 1555 1555 1554 1553 1552 1551
1521 1522 1518 1518 1519 1520 1521 1522 1522 1523 1524 1523 1524 1524 1525 1527 1529 1531 1532 1534 1536 1538 1540 1542 1543 1545 1547 1548 1549 1551 1552 1553 1554 1555 1556 1557 1558 1558 1557 1557 1556 1556 1555 1554 1554 1553 1552 1552 1551
1520 1519 1519 1519 1520 1522 1522 1522 1521 1521 1521 1522 1522 1522 1523 1525 1526 1528 1530 1531 1533 1535 1537 1539 1541 1543 1545 1546 1548 1550 1551 1552 1553 1554 1555 1556 1557 1557 1557 1556 1556 1555 1555 1554 1553 1552 1552 1551 1550
1519 1519 1519 1520 1521 1522 1522 1521 1520 1518 1519 1519 1519 1520 1521 1522 1523 1525 1527 1529 1530 1532 1534 1537 1539 1541 1543 1545 1547 1548 1550 1551 1552 1553 1554 1555 1555 1555 1555 1556 1555 1555 1554 1553 1552 1551 1551 1550 1548
1519 1519 1518 1518 1519 1519 1520 1518 1518 1514 1515 1515 1516 1517 1518 1519 1520 1522 1524 1525 1527 1528 1531 1534 1536 1538 1541 1543 1545 1547 1548 1549 1551 1551 1552 1553 1554 1554 1554 1554 1554 1553 1553 1552 1551 1550 1549 1548 1546
1519 1519 1517 1514 1516 1517 1519 1517 1512 1509 1511 1512 1512 1513 1514 1515 1516 1518 1519 1521 1524 1526 1528 1530 1533 1536 1538 1540 1543 1544 1546 1547 1549 1550 1551 1551 1552 1552 1552 1552 1552 1551 1551 1550 1549 1548 1547 1545 1544
1517 1518 1519 1511 1512 1514 1521 1519 1507 1505 1507 1507 1508 1509 1509 1510 1512 1514 1515 1517 1520 1523 1524 1527 1530 1533 1535 1537 1540 1542 1544 1545 1546 1548 1548 1549 1550 1550 1550 1550 1550 1550 1549 1548 1547 1546 1544 1543 1541
1517 1519 1515 1511 1508 1510 1515 1514 1505 1504 1503 1503 1503 1504 1504 1505 1507 1509 1511 1513 1516 1519 1521 1523 1526 1529 1532 1534 1537 1539 1541 1543 1544 1545 1546 1547 1547 1548 1548 1548 1548 1547 1547 1546 1545 1543 1542 1540 1538
1519 1517 1514 1513 1507 1508 1511 1508 1501 1500 1499 1497 1498 1499 1500 1500 1502 1504 1507 1509 1512 1515 1517 1520 1522 1525 1528 1531 1534 1536 1538 1540 1541 1542 1543 1544 1545 1545 1545 1545 1545 1545 1544 1543 1542 1541 1539 1537 1535
1514 1516 1517 1511 1504 1507 1507 1503 1496 1493 1492 1492 1492 1493 1495 1496 1498 1500 1502 1505 1508 1511 1513 1516 1518 1521 1524 1527 1529 1531 1534 1536 1537 1539 1540 1541 1542 1542 1543 1542 1542 1542 1541 1540 1539 1538 1536 1534 1532
1514 1517 1516 1509 1503 1506 1505 1499 1489 1486 1486 1486 1487 1488 1490 1492 1494 1495 1498 1500 1503 1506 1509 1511 1514 1517 1520 1522 1525 1528 1530 1532 1534 1536 1537 1538 1539 1539 1540 1539 1539 1539 1538 1537 1536 1535 1533 1532 1530
1514 1516 1514 1513 1508 1503 1504 1500 1487 1481 1481 1482 1483 1484 1486 1488 1490 1491 1493 1496 1499 1502 1504 1507 1509 1512 1516 1519 1522 1525 1527 1529 1530 1531 1533 1534 1535 1536 1536 1536 1536 1536 1535 1534 1533 1532 1531 1529 1528
1514 1508 1509 1512 1517 1514 1507 1515 1491 1481 1480 1480 1481 1482 1483 1484 1486 1488 1489 1492 1495 1498 1501 1504 1506 1509 1512 1514 1517 1519 1521 1523 1524 1527 1529 1530 1531 1532 1532 1533 1533 1532 1532 1531 1530 1529 1528 1526 1525
1506 1507 1509 1511 1515 1518 1508 1512 1495 1479 1481 1479 1478 1479 1481 1482 1483 1485 1486 1488 1491 1494 1497 1500 1502 1505 1507 1510 1512 1515 1517 1519 1521 1523 1525 1526 1527 1528 1528 1529 1529 1528 1528 1527 1526 1525 1524 1523 1521
1504 1508 1509 1510 1516 1523 1503 1506 1497 1481 1477 1476 1477 1478 1479 1480 1481 1482 1484 1486 1488 1491 1493 1496 1498 1501 1503 1506 1508 1510 1512 1514 1517 1518 1519 1521 1522 1523 1524 1524 1524 1524 1524 1523 1522 1521 1520 1519 1517
1505 1514 1521 1522 1526 1516 1493 1498 1492 1474 1472 1473 1475 1477 1477 1478 1479 1480 1482 1483 1485 1487 1489 1491 1494 1496 1498 1501 1503 1505 1507 1510 1512 1513 1514 1516 1517 1518 1519 1519 1520 1520 1519 1519 1518 1517 1515 1514 1513
1504 1507 1518 1521 1515 1503 1495 1497 1482 1469 1470 1472 1474 1475 1476 1477 1477 1478 1479 1480 1481 1483 1485 1487 1489 1491 1493 1495 1498 1500 1503 1505 1507 1508 1509 1510 1511 1513 1514 1514 1515 1515 1514 1514 1513 1512 1510 1509 1507
1500 1503 1499 1508 1506 1508 1496 1479 1471 1466 1469 1470 1472 1474 1475 1475 1476 1476 1477 1477 1478 1479 1480 1482 1484 1486 1488 1491 1493 1495 1498 1500 1501 1503 1504 1505 1506 1508 1508 1509 1509 1509 1509 1508 1507 1506 1505 1503 1502
1493 1495 1502 1510 1514 1514 1494 1484 1479 1472 1470 1469 1470 1471 1473 1473 1474 1474 1475 1475 1475 1476 1477 1478 1480 1481 1484 1486 1488 1490 1492 1494 1496 1498 1499 1500 1501 1502 1503 1503 1504 1503 1503 1502 1501 1500 1499 1498 1496
1494 1496 1495 1498 1498 1506 1504 1488 1464 1464 1464 1466 1467 1469 1470 1471 1471 1472 1472 1472 1473 1473 1473 1474 1475 1477 1479 1481 1483 1485 1486 1489 1490 1492 1493 1494 1495 1496 1497 1497 1498 1497 1497 1496 1495 1494 1493 1491 1489
1482 1486 1491 1500 1497 1493 1499 1488 1459 1460 1461 1463 1465 1466 1467 1467 1468 1468 1468 1469 1469 1469 1470 1470 1471 1472 1474 1476 1478 1479 1481 1483 1484 1486 1487 1489 1489 1490 1491 1491 1491 1491 1491 1490 1489 1487 1486 1484 1482